Location: D�derode
(51.8092°N, 10.1065°E)
Time: 05:38:19
(UTC+00:00)

Cosmos 1470 Rocket - Visible Passes

Search period start: 17 April 2021 00:00
Search period end: 27 April 2021 00:00
Orbit: 603 x 634 km, 82.5° (Epoch: 16 April)

Date Brightness Start Highest point End Pass type
(mag) Time Alt. Az. Time Alt. Az. Time Alt. Az.
17 Apr 5.9 01:02:28 10° NW 01:03:35 13° WNW 01:03:35 13° WNW visible
17 Apr 5.5 22:03:11 10° NNE 22:06:21 19° ENE 22:06:26 19° ENE visible
17 Apr 4.4 23:40:17 10° NNW 23:43:35 46° NW 23:43:35 46° NW visible
18 Apr 4.9 22:19:56 10° N 22:23:35 29° ENE 22:23:35 29° ENE visible
18 Apr 4.9 23:57:42 10° NNW 00:00:44 31° WNW 00:00:44 31° WNW visible
19 Apr 4.3 22:36:54 10° N 22:40:44 46° NE 22:40:44 46° NE visible
20 Apr 5.4 00:15:22 10° NW 00:17:53 20° WNW 00:17:53 20° WNW visible
20 Apr 5.9 21:17:53 10° NNE 21:19:50 13° ENE 21:20:45 12° ENE visible
20 Apr 3.8 22:54:02 10° N 22:57:54 67° N 22:57:54 67° N visible
21 Apr 5.9 00:33:34 10° NW 00:35:02 13° WNW 00:35:02 13° WNW visible
21 Apr 5.4 21:34:09 10° NNE 21:37:24 20° ENE 21:37:55 19° ENE visible
21 Apr 4.1 23:11:18 10° NNW 23:15:04 53° WNW 23:15:04 53° WNW visible
22 Apr 4.7 21:50:55 10° N 21:54:52 31° ENE 21:55:06 30° ENE visible
22 Apr 4.7 23:28:44 10° NNW 23:32:15 33° WNW 23:32:15 33° WNW visible
23 Apr 4.0 22:07:54 10° N 22:12:13 50° ENE 22:12:17 50° ENE visible
23 Apr 5.4 23:46:26 10° NW 23:49:26 21° W 23:49:26 21° W visible
24 Apr 5.8 20:48:48 10° NNE 20:50:53 13° ENE 20:52:20 12° E visible
24 Apr 3.5 22:25:02 10° N 22:29:29 85° ENE 22:29:29 85° ENE visible
25 Apr 5.9 00:04:40 10° NW 00:06:38 13° W 00:06:38 13° W visible
25 Apr 5.3 21:05:07 10° NNE 21:08:27 20° ENE 21:09:32 19° E visible
25 Apr 3.9 22:42:19 10° NNW 22:46:41 57° W 22:46:41 57° W visible
26 Apr 4.6 21:21:54 10° N 21:25:54 32° ENE 21:26:45 29° E visible
26 Apr 4.7 22:59:47 10° NNW 23:03:47 33° W 23:03:54 33° W visible
